Wind_Speed
21 21 22 22 22 22 22 22 22 22 22 22 22 22 22 20 21 21 22 22 22 22 22 22 21 22 21 21 20 20 20 20 20 18 18 18 17 17 17 17 17 17 17
23 23 23 23 23 24 24 23 24 24 24 24 23 23 23 23 22 23 23 23 24 24 24 24 23 22 23 23 23 23 22 22 22 21 20 20 20 20 19 19 19 19 19
24 24 24 24 25 25 25 25 26 26 26 25 25 24 25 25 24 24 24 24 24 24 25 25 24 24 24 25 25 24 24 24 24 23 23 22 22 22 22 21 21 21 22
24 25 25 25 25 26 26 27 27 28 27 26 26 26 26 26 25 25 26 27 26 26 26 26 26 25 25 26 26 26 26 25 25 25 25 25 24 24 24 24 24 24 24
23 24 24 25 25 26 27 28 28 28 28 27 27 26 26 26 26 26 26 27 27 28 27 27 26 25 25 26 26 26 27 26 26 26 26 27 27 26 26 26 26 26 26
22 22 23 24 26 27 27 28 28 28 28 28 27 27 27 27 27 27 27 27 28 28 28 27 27 27 27 27 27 28 28 28 28 27 27 27 28 28 28 28 28 28 28
21 22 23 24 26 27 28 29 29 29 28 28 28 28 28 28 28 28 28 28 29 29 28 28 29 29 28 28 28 28 28 29 28 28 28 29 29 29 30 30 30 30 31
22 23 23 24 25 27 28 28 28 28 29 29 29 29 29 28 28 28 28 28 28 28 29 29 30 29 29 28 29 28 29 30 29 28 29 30 30 31 31 31 32 32 33
24 24 25 25 26 27 28 28 28 28 29 29 29 29 29 28 28 28 29 28 28 28 28 29 29 29 28 29 30 29 30 30 30 30 31 31 32 32 33 34 34 35 36
25 25 25 26 27 27 28 28 29 29 29 29 30 30 29 28 28 28 29 29 28 28 28 28 28 28 29 29 30 31 31 32 32 32 32 32 33 33 33 34 35 36 37
25 25 26 26 27 27 27 28 28 28 29 29 30 30 30 30 29 28 28 29 29 28 28 28 29 29 29 29 30 32 32 33 33 32 33 33 35 35 35 36 36 37 38
26 26 27 27 27 27 27 27 27 27 28 28 29 29 30 30 30 29 28 29 29 28 28 28 29 29 30 31 31 33 33 33 33 33 33 34 35 36 36 36 37 38 39
27 27 27 27 27 26 26 26 26 26 26 27 28 28 29 29 29 28 28 28 28 29 29 29 29 29 30 31 32 33 34 35 35 35 36 36 36 36 37 37 38 39 39
28 28 27 27 27 26 26 26 26 26 26 26 26 27 27 27 28 27 27 27 27 27 28 28 29 30 30 30 31 32 33 34 35 35 35 35 35 36 36 37 38 38 38
27 28 28 28 27 27 26 26 26 26 25 25 25 25 25 26 26 27 26 27 27 27 27 26 28 29 30 31 31 32 32 33 34 34 34 34 35 36 36 36 36 37 38
27 27 27 27 26 26 26 25 25 25 25 24 24 24 24 23 24 24 25 24 24 25 25 24 25 26 28 28 29 30 31 31 32 33 33 33 34 34 34 35 36 38 39
26 25 25 25 25 25 25 25 25 25 24 24 24 24 23 23 22 22 22 22 22 23 23 23 24 25 25 26 27 29 30 30 30 31 32 32 32 33 33 33 34 35 36
24 24 24 24 24 24 24 25 24 24 24 24 24 23 23 22 22 21 21 21 22 22 22 21 22 22 23 24 25 26 27 28 29 29 29 30 30 31 31 32 32 32 34
22 22 22 22 22 22 22 23 23 23 23 23 23 22 21 21 21 21 20 20 20 21 21 22 21 21 21 22 23 25 25 26 28 28 29 29 29 30 31 31 31 32 33
22 21 20 19 19 20 20 20 20 20 21 21 21 20 20 20 20 20 20 20 20 20 21 21 21 21 21 22 23 23 24 24 25 26 27 28 28 29 29 29 30 31 31
19 19 18 18 18 18 17 17 17 17 18 19 19 19 19 19 19 19 19 19 19 20 19 20 20 20 20 19 20 20 21 22 22 24 24 25 25 26 26 27 28 28 29
17 16 16 17 16 16 16 16 15 16 17 16 16 16 16 17 17 17 17 17 17 17 18 18 18 17 17 17 18 18 19 20 20 21 21 22 22 23 24 24 25 25 25
15 15 15 15 15 14 14 13 13 13 13 13 13 14 14 13 14 15 15 15 15 16 17 16 15 15 15 16 16 17 17 18 18 18 19 20 21 21 21 21 22 22 22
14 13 13 13 13 12 11 11 10 10 9 9 9 10 10 10 10 11 11 12 13 14 13 13 13 13 14 14 14 15 15 16 17 17 17 17 18 19 19 19 19 20 20
11 10 9 9 9 9 8 8 8 7 7 6 5 5 5 6 6 7 7 7 7 8 8 9 10 10 11 10 11 11 12 12 13 14 14 14 15 16 16 17 17 18 19
8 7 7 7 6 5 5 5 5 4 3 2 1 1 1 1 2 2 2 2 2 3 4 4 5 6 7 7 8 9 9 10 10 11 11 12 13 14 15 16 16 17 18
Wind_Direction
260 263 264 265 267 268 269 272 275 277 276 277 279 279 278 279 278 275 270 266 264 264 266 266 263 261 261 260 257 257 256 257 256 256 257 258 260 261 262 262 263 264 265
259 262 263 266 267 269 270 273 274 275 275 276 278 278 276 276 276 275 270 266 264 263 263 264 264 262 261 261 259 257 258 257 256 257 258 259 260 262 262 262 264 264 265
258 260 262 265 267 270 271 272 272 273 275 276 277 277 276 276 273 272 268 266 265 263 263 262 261 261 260 260 259 258 257 257 258 258 259 259 260 261 262 263 265 265 267
258 260 261 264 267 269 270 272 273 274 274 276 277 276 276 276 273 270 267 265 263 263 262 262 262 261 261 260 259 259 258 258 259 259 259 259 261 262 263 263 264 265 267
259 263 264 267 268 269 270 270 271 273 273 275 275 275 274 274 273 270 267 264 262 262 262 261 260 259 260 259 257 259 259 259 260 260 259 260 261 263 264 264 264 265 267
261 266 270 270 271 272 272 272 271 272 273 273 272 272 273 273 271 268 267 264 261 260 260 260 259 259 260 257 255 257 258 259 261 261 260 261 261 262 263 264 265 267 268
270 271 274 274 274 274 274 273 273 272 272 271 271 271 272 272 269 267 267 265 262 259 258 258 258 258 259 257 255 256 257 258 260 262 263 262 261 262 263 264 267 268 269
275 276 276 277 277 276 276 276 275 275 274 272 272 271 270 271 269 267 265 266 264 261 257 256 256 257 258 257 255 256 257 258 258 260 262 263 263 263 264 266 267 269 270
275 277 277 278 279 279 278 277 276 276 275 272 271 271 270 270 268 266 265 265 263 261 259 256 255 254 256 256 255 256 256 257 257 259 262 262 262 262 263 266 267 268 270
276 277 278 279 279 279 279 277 277 278 276 274 272 272 271 270 268 266 266 264 262 261 260 257 253 254 256 254 254 256 255 255 257 259 260 261 262 263 265 266 268 269 270
276 276 277 278 278 279 279 278 277 277 276 274 272 271 271 269 269 268 265 264 261 259 259 257 254 256 254 252 254 255 255 256 257 259 259 263 264 263 265 266 268 271 272
275 275 275 276 278 278 278 279 279 277 276 274 272 270 269 268 267 268 265 262 261 258 257 257 256 254 252 252 254 255 256 257 258 258 260 264 264 265 267 267 269 270 272
274 274 274 275 277 278 278 278 278 278 276 273 271 269 267 266 265 264 264 262 261 258 257 258 257 255 254 255 255 254 256 258 259 260 262 264 265 266 267 268 270 271 272
275 275 274 275 276 276 276 277 277 277 276 274 271 268 266 264 263 263 262 262 262 260 259 259 257 255 254 255 254 255 257 258 259 260 261 263 265 267 267 270 271 271 273
275 274 274 275 275 275 275 275 275 275 275 275 274 271 268 266 264 264 263 264 262 261 260 260 259 256 255 255 256 257 258 258 258 259 261 263 266 268 270 272 271 270 272
275 275 275 275 275 274 275 275 274 274 274 274 273 271 271 269 267 266 265 265 263 264 263 262 260 258 260 259 258 259 259 259 262 263 264 265 267 267 270 271 270 272 274
277 276 276 275 275 274 274 274 273 274 273 273 272 271 270 268 267 266 265 265 262 263 265 266 263 263 262 261 261 261 262 263 265 267 268 269 269 271 273 274 276 276 276
277 275 276 275 274 273 272 272 273 273 273 271 271 270 269 267 265 265 264 263 264 264 265 265 265 262 261 262 262 263 264 265 266 267 268 270 272 274 277 279 280 281 282
277 275 274 274 275 275 274 273 273 274 273 271 271 269 268 266 265 265 265 264 264 264 263 265 265 264 263 265 267 267 267 268 270 269 271 274 276 278 279 281 282 284 285
276 275 274 274 274 275 275 274 273 273 272 270 269 269 269 268 266 264 264 264 262 263 263 264 264 264 264 267 269 269 267 269 273 274 276 277 279 280 282 284 285 286 288
277 275 273 273 276 276 276 275 276 273 272 271 267 267 268 268 266 264 264 263 262 261 263 264 264 265 266 267 270 272 271 274 278 279 280 282 284 285 286 289 291 292 292
278 276 276 275 276 276 276 276 277 276 275 274 270 267 267 267 264 265 264 262 261 260 261 261 262 264 267 270 274 276 278 280 282 283 284 287 290 290 292 294 294 294 295
278 277 275 274 276 275 277 279 278 279 279 277 275 271 267 263 263 263 262 258 256 257 257 259 261 263 267 272 277 280 283 285 286 288 290 292 293 295 297 299 298 298 298
278 278 276 273 274 276 278 280 281 281 281 280 279 272 270 267 263 259 258 258 257 257 256 260 265 269 273 277 283 286 289 291 291 293 295 298 299 301 302 304 304 304 304
278 280 276 272 272 273 279 280 277 281 278 280 285 280 277 273 266 261 260 259 261 263 264 267 271 276 281 284 289 292 295 299 301 303 304 305 307 308 308 307 308 308 309
274 272 272 272 268 271 277 275 271 271 271 266 274 279 263 278 291 285 265 245 270 280 278 277 283 286 291 295 299 302 307 309 311 313 314 314 316 316 317 317 317 316 316
Height
5874 5874 5875 5875 5875 5875 5875 5875 5875 5875 5875 5875 5875 5875 5875 5875 5875 5875 5875 5875 5876 5876 5877 5877 5877 5878 5879 5879 5880 5881 5882 5882 5883 5884 5885 5885 5886 5887 5887 5887 5888 5888 5888
5869 5870 5870 5870 5870 5870 5871 5871 5871 5870 5870 5870 5869 5869 5869 5870 5870 5870 5870 5870 5870 5871 5872 5872 5872 5873 5874 5874 5875 5876 5877 5878 5878 5879 5880 5881 5882 5882 5883 5883 5883 5884 5884
5863 5864 5864 5864 5864 5865 5865 5865 5865 5865 5865 5864 5864 5864 5864 5864 5864 5864 5864 5865 5865 5865 5866 5866 5867 5868 5868 5869 5870 5871 5872 5873 5874 5874 5875 5876 5877 5877 5878 5878 5879 5879 5879
5857 5858 5858 5859 5859 5859 5859 5859 5860 5859 5859 5859 5858 5858 5858 5858 5858 5858 5858 5859 5859 5860 5860 5861 5861 5862 5863 5863 5864 5865 5866 5867 5868 5869 5870 5871 5871 5872 5872 5873 5873 5874 5874
5852 5852 5853 5853 5853 5853 5853 5853 5853 5853 5853 5853 5852 5852 5852 5851 5852 5852 5852 5852 5853 5853 5854 5854 5855 5856 5857 5858 5859 5860 5861 5861 5862 5863 5864 5865 5866 5866 5867 5867 5867 5867 5868
5846 5846 5847 5847 5847 5847 5846 5846 5846 5846 5846 5846 5846 5846 5845 5845 5845 5846 5846 5846 5846 5847 5847 5848 5849 5850 5851 5852 5853 5854 5854 5855 5856 5857 5858 5859 5859 5860 5860 5861 5861 5861 5861
5840 5841 5841 5841 5841 5841 5840 5840 5840 5839 5839 5839 5839 5839 5839 5838 5838 5839 5839 5839 5840 5840 5841 5842 5843 5844 5845 5846 5846 5847 5848 5849 5850 5850 5851 5852 5852 5853 5854 5854 5854 5854 5854
5836 5836 5836 5835 5835 5834 5834 5833 5833 5833 5832 5832 5832 5832 5832 5832 5831 5831 5831 5832 5832 5833 5834 5835 5836 5837 5838 5839 5840 5840 5841 5842 5843 5844 5844 5845 5846 5846 5846 5847 5847 5847 5847
5830 5830 5829 5829 5828 5828 5827 5826 5826 5826 5826 5825 5825 5825 5825 5825 5825 5825 5825 5825 5825 5826 5827 5828 5829 5830 5831 5832 5833 5833 5834 5835 5836 5837 5837 5838 5838 5838 5839 5839 5839 5839 5838
5824 5823 5823 5822 5822 5821 5820 5819 5819 5818 5818 5818 5818 5818 5818 5818 5818 5818 5818 5818 5818 5819 5820 5821 5821 5822 5824 5825 5826 5826 5827 5828 5829 5829 5830 5830 5830 5830 5831 5831 5831 5830 5830
5817 5817 5816 5816 5815 5814 5814 5812 5812 5811 5811 5811 5810 5810 5810 5810 5810 5811 5811 5811 5811 5812 5813 5814 5814 5815 5817 5818 5819 5819 5819 5820 5821 5821 5822 5822 5822 5822 5822 5822 5822 5821 5821
5811 5810 5810 5809 5808 5808 5807 5806 5805 5804 5804 5803 5803 5803 5803 5803 5803 5803 5804 5804 5804 5805 5806 5806 5807 5808 5809 5810 5811 5812 5812 5813 5813 5814 5814 5814 5814 5814 5814 5813 5813 5812 5811
5804 5803 5803 5802 5801 5800 5799 5799 5798 5797 5796 5796 5796 5795 5795 5795 5796 5796 5796 5796 5797 5797 5798 5799 5800 5801 5802 5803 5804 5804 5805 5805 5805 5806 5806 5806 5805 5805 5805 5804 5803 5803 5802
5797 5796 5795 5795 5794 5793 5792 5792 5791 5790 5789 5789 5788 5788 5788 5788 5788 5789 5789 5790 5790 5791 5791 5792 5792 5793 5794 5795 5796 5797 5797 5797 5797 5798 5798 5797 5797 5797 5796 5795 5794 5793 5792
5789 5788 5788 5787 5786 5785 5785 5784 5784 5783 5782 5782 5781 5781 5780 5781 5781 5781 5782 5783 5784 5784 5785 5785 5785 5786 5786 5788 5788 5789 5789 5790 5790 5790 5790 5790 5789 5789 5788 5787 5786 5785 5783
5782 5781 5780 5779 5779 5778 5778 5777 5777 5776 5776 5775 5774 5774 5774 5774 5775 5775 5776 5776 5777 5777 5778 5778 5778 5779 5780 5780 5781 5782 5782 5782 5782 5782 5782 5782 5781 5780 5779 5778 5777 5776 5774
5774 5773 5772 5772 5771 5771 5770 5770 5770 5769 5769 5769 5768 5768 5768 5769 5769 5769 5770 5770 5771 5771 5771 5772 5772 5773 5773 5774 5774 5775 5775 5775 5775 5775 5775 5774 5773 5773 5771 5770 5768 5767 5765
5767 5766 5765 5765 5764 5764 5763 5763 5763 5763 5763 5762 5762 5762 5762 5763 5763 5764 5764 5765 5765 5765 5766 5766 5766 5767 5767 5768 5768 5768 5768 5768 5768 5768 5767 5767 5766 5765 5764 5762 5761 5759 5757
5760 5759 5758 5758 5758 5757 5757 5756 5756 5756 5756 5756 5756 5756 5756 5757 5757 5758 5759 5759 5760 5760 5761 5761 5761 5761 5761 5762 5762 5762 5762 5762 5762 5761 5761 5760 5759 5758 5757 5755 5754 5752 5750
5754 5753 5752 5752 5751 5751 5750 5750 5750 5750 5750 5750 5750 5750 5751 5751 5752 5752 5753 5754 5755 5755 5755 5756 5756 5756 5756 5756 5756 5756 5756 5756 5755 5755 5754 5753 5752 5751 5750 5748 5747 5745 5743
5747 5747 5746 5746 5746 5746 5745 5745 5745 5744 5744 5744 5744 5744 5745 5746 5746 5747 5748 5749 5750 5750 5750 5751 5751 5751 5751 5751 5751 5751 5751 5750 5750 5749 5748 5747 5746 5745 5743 5742 5740 5738 5736
5742 5742 5741 5741 5741 5741 5741 5741 5740 5740 5740 5739 5739 5739 5740 5741 5742 5742 5743 5744 5745 5745 5746 5746 5746 5746 5746 5747 5747 5746 5746 5746 5745 5744 5743 5742 5741 5739 5738 5736 5734 5732 5729
5737 5737 5737 5737 5737 5737 5737 5737 5737 5736 5736 5736 5736 5736 5736 5737 5738 5738 5739 5739 5740 5740 5741 5741 5742 5742 5742 5742 5742 5742 5742 5741 5740 5739 5738 5737 5736 5734 5732 5730 5728 5726 5724
5733 5733 5733 5733 5734 5734 5734 5734 5734 5734 5733 5733 5733 5733 5733 5734 5734 5735 5735 5735 5736 5736 5736 5737 5738 5738 5738 5738 5738 5738 5737 5737 5736 5735 5733 5732 5731 5729 5727 5725 5723 5721 5719
5729 5730 5730 5730 5730 5731 5731 5731 5731 5732 5732 5732 5732 5732 5732 5732 5732 5732 5732 5733 5733 5733 5733 5734 5734 5734 5734 5735 5734 5734 5734 5733 5732 5731 5730 5729 5727 5725 5723 5721 5719 5717 5714
5726 5727 5727 5727 5728 5728 5729 5729 5729 5730 5730 5730 5730 5731 5731 5731 5731 5731 5731 5731 5731 5731 5732 5732 5732 5732 5732 5732 5732 5731 5731 5730 5729 5728 5727 5725 5724 5722 5720 5718 5715 5713 5710